Weather Roundup
Issued by NWS Springfield, MO

Home | Current Version | Previous Version | Text Only | Print | Product List | Glossary On
Versions: 1 2 3 4 5 6 7 8 9 10 11 12 13 14 15 16 17 18 19 20 21 22 23 24 25 26 27 28 29 30 31 32 33 34 35 36 37 38 39 40 41 42 43 44 45 46 47 48 49 50
000
NZUS99 KSGF 300507
HRRSGF

HOURLY WEATHER
NATIONAL WEATHER SERVICE SPRINGFIELD MO
1200 AM CDT MON MAY 30 2016

......SGF CWA......

CITY           SKY/WX    TMP DP  RH WIND       PRES   REMARKS
SPRINGFIELD    CLEAR     69  62  78 SE7       30.09S
JOPLIN         CLOUDY    70  65  84 SE6       30.08S
WEST PLAINS    CLOUDY    65  62  90 W3        30.12S
ROLLA          CLEAR     65  61  87 S7        30.07F

......SURROUNDING SGF CWA......

CITY           SKY/WX    TMP DP  RH WIND       PRES   REMARKS
CHANUTE        CLEAR     67  64  90 CALM      30.06F
PARSONS        CLOUDY    65  64  97 CALM      30.07F
COFFEYVILLE    CLOUDY    67  66  97 CALM      30.06F
EMPORIA        PTCLDY    65  63  93 S7        30.07R
GROVE OK       CLOUDY    68  63  83 CALM      30.09S
ROGERS AR        N/A     67  64  90 CALM      30.11F
SILOAM SPRINGS CLOUDY    63  52  67 NE3       30.11S
HARRISON AR    PTCLDY    67  63  87 S3        30.12R
NEAR YELLVILLE PTCLDY   N/A N/A N/A CALM      30.07R

......KANSAS AND MISSOURI......

CITY           SKY/WX    TMP DP  RH WIND       PRES   REMARKS
KANSAS CTY INT CLOUDY    66  60  81 S8        30.05F
DOWNTOWN KC    CLOUDY    73  60  63 CALM      30.04S
COLUMBIA       CLOUDY    71  64  78 S6        30.06F
SEDALIA        CLOUDY    69  64  84 S6        30.07F
ST JOSEPH      CLOUDY    70  63  78 CALM      30.04F
ST LOUIS       CLOUDY    73  60  63 CALM      30.06S
SPIRIT OF STL  CLEAR     65  63  93 CALM      30.05S
KIRKSVILLE     CLOUDY    68  61  78 SW5       30.05F
WICHITA        CLOUDY    67  59  75 CALM      30.06F
TOPEKA         CLOUDY    68  65  90 CALM      30.05S
OLATHE         CLEAR     69  60  73 CALM      30.06F

......TENNESSEE......

CITY           SKY/WX    TMP DP  RH WIND       PRES   REMARKS
MEMPHIS        CLOUDY    76  69  79 CALM      30.06S
NASHVILLE      PTCLDY    75  66  73 NW3       30.04F

......ARKANSAS.......

CITY           SKY/WX    TMP DP  RH WIND       PRES   REMARKS
FAYETTEVILLE   CLOUDY    62  62 100 CALM      30.10F
FT SMITH       CLOUDY    75  67  76 SE3       30.07F
LITTLE ROCK    MOCLDY    68  64  87 CALM      30.07F

......OKLAHOMA.......

CITY           SKY/WX    TMP DP  RH WIND       PRES   REMARKS
TULSA          CLOUDY    70  62  76 S5        30.05S
PONCA CITY     CLOUDY    72  62  71 SE8       30.06R
MCALESTER      CLOUDY    73  68  84 SE3       30.07S
OKLAHOMA CITY  CLOUDY    68  61  78 NE7       30.06F

......IOWA............

CITY           SKY/WX    TMP DP  RH WIND       PRES   REMARKS
DES MOINES     CLOUDY    71  58  63 S5        30.02S
QUAD CITIES    MOCLDY    72  56  57 CALM      30.02S

......ILLINOIS........

CITY           SKY/WX    TMP DP  RH WIND       PRES   REMARKS
QUINCY         PTCLDY    69  60  73 S5        30.04F
CHICAGO        CLEAR     67  58  72 W5        30.00S




USA.gov is the U.S. government's official web portal to all federal, state and local government web resources and services.